[Date Prev][Date Next][Thread Prev][Thread Next] - [Date Index][Thread Index][Author Index]
2 Line ISS Keps 10-17
- Subject: [sarex] 2 Line ISS Keps 10-17
- From: "Dave Larsen PhD" <doc@xxxxxxxxxxx>
- Date: Wed, 17 Oct 2001 03:47:20 -0700
ISS
1 25544U 98067A 01290.16662395 .00057746 00000-0 78410-3 0 6113
2 25544 51.6402 195.0504 0007976 208.5631 314.8733 15.57021818166110
----
Via the sarex mailing list at AMSAT.ORG courtesy of AMSAT-NA.
To unsubscribe, send "unsubscribe sarex" to Majordomo@amsat.org
AMSAT Home